Wind_Speed
8 8 8 6 4 6 6 5 5 3 2 2 2 3 2 1 1 2 2 3 4 5 5 6 7 7 7 8 8 9 10 11 11 10 10 9 9 8 7 7 6 6 5 4 4 3 3 4 6
8 7 7 5 7 8 6 5 4 4 3 3 3 4 4 3 2 3 3 3 4 4 5 5 5 5 5 5 6 6 7 8 9 9 9 9 9 8 7 7 7 7 6 5 4 3 3 3 3
6 6 6 6 7 7 6 6 5 5 4 4 4 5 4 4 4 3 4 4 4 5 5 5 5 4 4 3 3 4 4 5 6 7 7 8 8 8 8 7 7 8 7 6 5 5 5 5 4
5 5 5 7 6 6 6 5 5 6 5 5 5 5 5 5 4 5 5 6 6 6 6 6 7 6 5 4 3 2 1 1 2 3 3 4 5 5 6 7 7 7 8 7 7 6 6 6 5
4 4 5 6 6 6 6 6 6 6 6 7 6 6 6 5 5 5 7 7 7 7 8 8 8 8 8 7 7 6 4 4 3 2 1 1 1 2 3 4 5 6 7 7 7 7 6 6 6
2 3 4 5 5 6 7 7 7 8 8 9 8 7 7 6 6 7 8 8 8 9 9 10 10 10 11 10 10 9 8 7 7 6 5 5 3 2 1 1 2 3 4 5 6 7 7 6 6
3 2 4 7 6 7 9 10 9 9 10 11 10 8 9 9 8 8 9 10 10 10 11 12 12 12 12 13 13 13 12 11 10 10 9 8 7 6 5 4 3 2 1 2 4 5 6 6 6
5 4 5 9 7 10 12 13 13 11 11 12 13 12 11 11 11 11 12 12 13 13 13 13 14 14 15 15 15 15 15 15 14 13 12 11 10 10 9 8 7 6 4 3 2 2 3 4 4
6 5 7 10 11 12 15 15 16 15 15 15 15 15 15 15 15 15 15 16 16 16 17 17 16 16 17 17 18 18 17 17 17 17 16 15 14 13 12 11 11 9 8 7 5 4 3 2 2
9 8 8 12 16 15 16 18 19 17 18 18 19 19 19 18 18 18 19 19 19 20 20 20 20 20 20 20 20 21 20 20 20 20 20 19 18 17 16 15 14 13 12 11 9 8 6 5 4
12 12 13 17 19 20 19 20 22 21 22 22 23 23 22 22 22 21 22 22 23 23 23 23 24 24 24 23 23 23 23 24 24 24 24 23 22 20 19 18 17 16 15 15 13 12 10 9 8
15 17 18 20 22 24 23 24 25 26 26 27 27 26 25 25 26 25 25 26 27 26 27 27 27 28 28 28 28 27 27 27 28 28 28 27 25 24 22 21 20 19 18 18 17 16 14 13 12
19 20 22 24 26 27 28 28 29 29 30 30 30 30 29 29 29 30 30 30 30 30 30 30 31 31 31 31 31 32 32 32 31 29 30 31 29 26 25 24 22 22 21 21 20 19 18 16 15
24 26 27 28 29 30 30 31 31 32 32 32 32 32 32 32 33 33 34 34 35 35 36 36 36 36 36 36 35 35 35 35 34 34 33 33 31 30 28 28 26 25 24 23 23 21 20 19 17
26 29 30 31 31 29 31 31 31 33 33 34 34 34 34 34 35 36 36 37 38 39 39 40 41 41 41 41 41 41 40 39 38 37 37 36 35 33 32 32 30 29 28 27 26 24 23 21 20
27 28 29 30 32 30 31 34 32 33 34 35 35 36 35 35 36 36 36 37 38 39 40 41 42 43 45 46 46 46 46 45 44 43 42 41 39 37 36 34 33 32 31 30 29 27 26 24 22
26 24 24 31 34 34 34 35 34 33 34 34 34 35 35 35 35 35 35 36 37 38 38 39 40 42 43 45 47 49 49 49 49 48 46 45 44 41 39 38 36 36 35 33 31 29 28 27 25
25 25 24 34 39 38 38 36 33 32 33 34 34 34 34 35 35 35 35 35 36 36 37 38 39 40 41 43 45 46 47 48 50 50 49 48 46 44 42 40 39 37 37 36 35 33 31 28 27
24 26 25 33 35 33 35 35 33 31 31 32 33 33 33 33 33 33 33 34 35 35 36 38 39 40 41 43 44 46 47 47 48 49 50 50 50 48 46 44 41 39 38 37 36 34 33 30 28
24 25 24 30 29 28 30 31 30 28 28 29 30 30 30 29 30 31 32 33 33 34 35 36 37 38 40 42 43 45 46 48 49 49 50 51 51 50 48 47 46 41 38 37 36 33 32 32 29
21 22 23 25 26 26 27 28 28 24 24 24 26 26 27 27 28 28 28 29 29 30 31 32 33 35 37 39 40 42 44 46 47 49 50 51 51 50 49 47 47 44 41 37 36 34 32 31 29
19 20 21 22 24 26 25 26 27 25 24 23 23 23 24 24 24 25 25 25 26 27 27 27 28 30 32 33 35 37 39 41 43 46 47 47 48 49 49 46 46 45 42 39 37 36 35 32 29
19 20 21 21 20 20 21 23 26 25 24 23 23 22 21 21 22 22 23 23 23 23 24 25 26 27 28 29 30 31 33 35 37 40 42 43 44 45 46 46 44 43 42 41 39 37 34 33 30
18 19 18 17 18 19 20 22 25 24 23 22 22 21 20 20 20 20 20 19 19 19 19 20 21 23 24 24 23 25 26 28 31 33 35 37 39 40 42 42 41 41 41 40 40 37 35 33 32
17 18 19 18 18 18 21 21 21 21 21 20 19 18 18 17 18 17 17 17 16 16 16 17 18 18 19 19 19 19 20 22 23 24 26 28 31 33 36 37 37 37 38 38 40 38 36 34 32
17 17 16 13 9 15 17 18 18 19 18 18 17 15 15 16 17 17 17 17 17 17 17 17 17 17 17 16 15 15 16 16 17 17 19 21 24 27 29 31 33 34 35 36 38 38 37 35 32
16 16 15 14 12 11 17 16 16 17 17 16 15 15 15 16 17 17 18 19 19 19 20 19 18 17 17 17 15 15 14 12 12 11 12 14 16 19 22 25 29 31 32 34 35 36 35 35 34
15 15 15 15 13 10 13 17 18 17 17 16 15 15 16 18 18 19 19 20 20 21 22 21 20 19 18 17 16 16 14 12 10 8 8 8 10 12 16 20 24 26 28 31 32 33 34 34 35
15 16 16 15 15 14 13 15 16 16 15 15 15 15 17 18 18 19 19 20 20 21 22 23 22 21 20 19 18 17 15 14 12 9 8 6 6 9 11 15 18 21 24 26 28 30 32 33 34
15 16 16 16 15 13 14 13 14 14 14 15 15 16 17 18 19 19 20 20 21 21 21 22 22 22 21 21 20 19 18 16 15 13 10 8 6 6 8 11 13 16 19 22 24 26 29 31 32
Wind_Direction
75 78 76 74 60 57 53 49 39 18 355 345 322 304 326 316 243 249 215 183 171 155 141 131 121 113 105 99 94 90 88 89 89 91 91 92 94 97 101 105 108 113 122 134 150 164 176 201 220
67 73 72 64 55 58 54 45 32 3 340 326 320 317 326 306 294 269 243 229 217 197 178 167 155 139 126 115 105 97 91 89 88 89 91 91 91 92 95 99 100 100 104 111 122 130 136 143 160
63 65 66 60 52 51 43 36 19 4 344 329 327 331 328 318 311 288 270 263 255 241 217 204 197 186 173 155 134 116 100 93 91 91 92 92 89 88 90 93 94 93 94 93 97 104 111 121 129
58 46 48 52 47 42 31 19 10 356 342 338 342 338 336 328 316 294 284 274 270 265 251 235 226 220 214 208 202 191 174 125 98 97 98 95 90 87 87 88 88 89 89 88 87 91 99 108 116
52 29 22 24 23 16 4 356 351 339 333 330 340 335 336 333 319 300 286 279 272 270 265 254 245 239 234 231 230 235 239 243 249 251 240 174 116 102 95 90 87 86 88 88 86 87 92 102 109
20 20 353 334 354 349 332 329 326 321 320 317 326 331 329 326 315 303 293 284 278 272 270 266 258 252 248 246 245 245 249 251 251 253 255 253 249 242 224 170 111 97 90 88 87 87 89 96 105
309 304 290 303 317 308 301 305 304 306 309 309 311 317 315 311 305 298 291 286 281 274 270 271 267 262 257 254 252 252 253 255 254 253 253 253 253 251 247 241 231 209 162 113 97 91 90 93 100
292 293 287 290 290 287 292 293 294 297 297 298 301 303 302 299 295 289 287 284 281 278 273 268 267 266 263 259 256 254 255 255 255 254 252 252 251 251 249 247 244 240 234 219 177 128 111 102 102
287 279 274 278 282 282 287 289 288 291 292 290 290 292 293 292 290 287 284 282 280 277 276 274 270 266 264 261 259 258 256 256 254 253 252 250 249 248 248 247 245 244 242 240 232 215 196 171 136
281 274 259 269 280 280 286 290 290 291 289 287 285 286 287 286 284 283 280 278 276 275 274 274 272 268 265 262 260 259 258 258 256 254 252 250 248 246 246 246 245 244 245 245 243 238 232 227 219
282 278 269 275 284 285 287 291 291 291 288 287 285 283 282 281 280 278 276 273 272 270 270 271 271 272 270 268 265 262 259 257 256 255 253 250 248 246 244 245 245 245 246 246 246 245 242 238 236
285 286 286 285 288 291 293 293 294 293 291 289 287 284 280 278 276 275 273 271 269 268 268 268 268 269 270 270 269 267 263 260 258 254 254 254 252 250 247 243 244 245 246 247 247 246 245 241 240
288 290 292 292 293 294 296 297 296 295 293 290 288 285 282 279 276 274 272 271 269 268 267 267 267 267 268 269 269 268 266 264 263 259 257 255 252 250 250 246 243 245 246 246 246 246 246 244 241
294 295 295 295 296 297 298 298 298 295 293 290 288 286 283 280 277 275 272 271 270 269 268 267 266 267 267 267 267 267 267 267 264 262 261 259 256 253 251 249 245 245 246 246 246 246 245 246 244
294 297 298 298 297 298 298 297 297 294 293 290 288 286 283 281 279 277 275 274 272 271 270 269 268 267 267 267 267 266 266 267 267 266 262 263 261 256 253 250 246 245 245 245 245 246 245 245 244
297 304 305 303 301 302 302 300 298 294 292 290 289 287 285 282 281 280 279 277 276 275 273 272 270 269 268 267 267 267 267 267 266 265 264 265 263 257 255 253 249 246 245 247 245 245 245 244 244
306 308 299 295 297 303 302 299 298 296 294 292 290 289 287 286 285 284 282 281 279 278 277 276 274 273 271 270 270 269 268 267 266 265 265 265 264 263 260 256 252 249 246 245 244 245 244 243 242
298 299 292 287 297 303 302 301 299 297 295 294 292 290 290 289 288 287 286 284 283 281 280 278 277 275 274 273 272 271 270 268 268 266 265 264 263 263 262 260 257 253 250 248 246 244 243 242 243
295 293 290 286 298 301 301 302 302 301 298 296 295 294 294 293 292 290 289 288 286 284 282 280 279 277 275 274 273 271 270 269 267 266 265 263 261 260 259 259 260 257 254 253 250 246 243 242 240
298 296 293 293 305 306 305 305 306 305 302 301 299 297 296 295 294 293 292 291 288 287 286 284 282 280 278 276 274 271 270 269 268 266 265 263 261 260 259 260 260 259 256 254 252 248 243 241 239
305 305 305 304 311 309 309 309 312 314 310 307 303 301 299 297 297 297 296 294 291 290 289 288 286 283 280 277 274 271 270 269 267 266 264 263 261 259 259 259 257 256 254 252 251 247 244 242 239
314 317 314 311 312 313 318 317 320 326 324 318 313 309 307 304 304 303 302 299 298 296 294 292 291 289 286 282 277 274 271 270 268 265 263 261 258 257 257 256 255 254 253 251 249 249 245 242 239
322 322 320 317 317 319 324 324 324 331 328 325 322 319 317 315 314 313 310 307 305 303 301 300 298 297 295 290 283 279 277 274 271 266 262 259 256 253 253 252 252 251 250 250 250 247 245 242 241
328 327 326 326 335 339 337 327 326 332 329 328 327 326 325 325 326 325 324 320 318 317 315 313 309 305 303 300 295 287 283 279 275 269 263 257 253 250 249 248 249 249 248 248 248 245 243 241 242
337 339 342 345 341 331 331 329 334 334 333 333 333 334 337 340 344 346 347 346 345 343 339 336 330 325 320 314 307 300 293 288 281 273 264 257 251 248 245 243 243 244 244 245 245 244 242 241 241
348 349 353 350 326 319 334 339 343 342 342 343 347 353 358 2 6 9 12 13 10 6 1 355 351 347 342 337 331 326 313 303 292 279 268 259 251 245 242 239 238 239 239 240 240 241 241 239 240
357 0 1 358 354 337 334 353 356 354 357 2 7 11 15 16 19 20 19 18 17 15 11 8 5 2 360 357 356 353 345 329 316 296 278 266 255 246 240 237 234 234 235 236 236 238 240 240 239
9 7 6 3 4 356 343 356 4 9 9 13 16 19 22 23 24 24 23 23 22 21 21 20 18 13 8 7 4 6 3 357 346 332 304 276 262 250 241 237 234 233 233 234 236 238 239 239 239
15 12 10 9 12 9 4 7 9 13 15 18 22 24 24 25 24 22 21 21 21 21 22 21 21 21 19 17 15 14 13 12 9 359 348 328 286 265 250 241 238 237 237 237 239 239 239 241 241
19 17 16 15 16 17 19 22 19 19 22 24 25 24 22 22 21 21 22 22 21 20 19 20 22 24 24 24 24 23 21 19 17 14 9 358 336 296 264 254 248 244 242 240 241 242 242 243 243
Height
5922 5921 5921 5922 5922 5921 5920 5920 5919 5919 5919 5918 5918 5917 5917 5917 5918 5920 5917 5916 5917 5916 5916 5916 5916 5916 5916 5915 5915 5914 5913 5912 5912 5911 5910 5910 5909 5909 5908 5908 5907 5907 5906 5906 5906 5906 5907 5907 5907
5924 5923 5924 5923 5922 5921 5921 5921 5920 5920 5920 5919 5919 5918 5918 5917 5918 5917 5917 5917 5917 5917 5917 5917 5917 5917 5917 5917 5916 5916 5915 5914 5914 5913 5912 5912 5911 5910 5910 5909 5908 5908 5907 5907 5907 5907 5906 5907 5907
5926 5925 5926 5924 5923 5923 5923 5922 5922 5921 5920 5920 5920 5919 5919 5918 5918 5917 5917 5918 5918 5918 5917 5917 5917 5917 5917 5917 5917 5917 5917 5916 5915 5915 5914 5913 5913 5912 5911 5911 5910 5909 5908 5908 5907 5907 5907 5907 5907
5928 5927 5927 5926 5924 5924 5924 5923 5923 5922 5921 5920 5920 5920 5918 5919 5918 5918 5917 5917 5918 5918 5918 5917 5917 5917 5917 5917 5917 5917 5917 5917 5916 5916 5915 5915 5914 5914 5913 5912 5911 5910 5909 5909 5908 5908 5907 5907 5907
5929 5928 5927 5926 5926 5925 5925 5924 5924 5923 5921 5920 5921 5919 5919 5919 5918 5917 5917 5917 5917 5917 5917 5917 5917 5917 5917 5917 5917 5917 5917 5916 5916 5916 5916 5915 5915 5915 5914 5913 5913 5912 5911 5910 5909 5909 5908 5908 5908
5930 5929 5929 5928 5927 5926 5925 5925 5924 5923 5922 5920 5921 5920 5919 5918 5918 5917 5916 5916 5916 5916 5916 5915 5915 5915 5915 5916 5916 5916 5916 5916 5916 5915 5915 5915 5915 5915 5914 5914 5913 5913 5912 5911 5911 5910 5909 5909 5909
5931 5930 5929 5928 5928 5926 5925 5924 5924 5923 5922 5921 5920 5920 5918 5918 5917 5916 5915 5914 5914 5914 5914 5913 5913 5913 5913 5914 5914 5914 5914 5914 5914 5914 5914 5914 5914 5914 5914 5914 5913 5913 5913 5912 5912 5911 5911 5910 5910
5930 5931 5929 5927 5927 5926 5925 5923 5922 5923 5921 5920 5919 5918 5917 5917 5915 5914 5913 5913 5912 5911 5911 5911 5911 5910 5911 5911 5911 5911 5911 5912 5912 5912 5912 5912 5913 5913 5913 5913 5913 5912 5912 5912 5912 5912 5911 5911 5911
5929 5930 5927 5926 5926 5925 5923 5922 5921 5921 5920 5919 5917 5916 5915 5914 5913 5912 5911 5911 5910 5909 5908 5908 5908 5908 5908 5908 5907 5907 5908 5908 5908 5909 5909 5910 5910 5910 5911 5911 5911 5911 5911 5912 5912 5912 5912 5911 5911
5928 5928 5927 5924 5924 5924 5922 5920 5919 5919 5918 5916 5915 5914 5912 5911 5910 5909 5908 5907 5907 5906 5905 5904 5904 5903 5903 5903 5904 5904 5904 5904 5904 5905 5905 5906 5907 5907 5908 5908 5909 5909 5910 5910 5910 5911 5911 5911 5911
5925 5926 5925 5923 5922 5920 5920 5919 5917 5916 5915 5913 5912 5910 5909 5907 5906 5905 5904 5903 5902 5902 5901 5900 5900 5899 5899 5898 5899 5899 5899 5899 5899 5899 5900 5901 5902 5903 5904 5905 5905 5906 5907 5908 5908 5909 5909 5910 5910
5923 5922 5922 5921 5919 5917 5916 5915 5913 5911 5910 5908 5907 5905 5904 5903 5901 5900 5899 5898 5897 5896 5896 5895 5894 5894 5893 5893 5893 5893 5893 5893 5893 5893 5894 5895 5896 5898 5899 5901 5901 5902 5904 5904 5905 5906 5907 5908 5908
5920 5920 5918 5917 5915 5913 5912 5911 5908 5906 5904 5902 5900 5899 5898 5896 5895 5893 5892 5891 5890 5890 5889 5889 5888 5887 5887 5887 5887 5886 5886 5886 5884 5885 5888 5888 5889 5892 5894 5896 5897 5898 5899 5900 5901 5903 5904 5905 5906
5916 5915 5914 5912 5910 5908 5907 5905 5903 5900 5898 5896 5894 5892 5890 5889 5887 5886 5885 5884 5883 5882 5882 5881 5881 5881 5880 5880 5880 5880 5880 5879 5880 5880 5881 5881 5882 5885 5887 5889 5891 5893 5894 5896 5897 5898 5900 5901 5902
5914 5912 5909 5907 5905 5904 5901 5900 5897 5893 5890 5888 5886 5884 5882 5881 5879 5878 5876 5875 5874 5874 5873 5873 5872 5872 5872 5872 5872 5872 5872 5872 5873 5873 5873 5874 5875 5878 5880 5882 5884 5886 5888 5890 5891 5893 5895 5896 5897
5910 5908 5905 5901 5899 5897 5897 5892 5891 5887 5884 5881 5878 5876 5874 5872 5871 5870 5868 5867 5866 5865 5864 5863 5863 5863 5863 5862 5862 5863 5863 5863 5864 5865 5866 5867 5867 5869 5871 5873 5876 5879 5881 5883 5885 5887 5889 5891 5893
5907 5905 5901 5896 5893 5891 5890 5886 5884 5881 5877 5874 5871 5868 5866 5864 5863 5861 5860 5858 5857 5856 5855 5854 5853 5853 5852 5852 5852 5852 5853 5854 5855 5856 5857 5858 5859 5860 5862 5864 5867 5870 5873 5876 5878 5880 5882 5885 5887
5904 5902 5899 5891 5888 5886 5882 5879 5877 5874 5870 5867 5864 5861 5859 5857 5855 5853 5851 5850 5848 5847 5845 5844 5843 5843 5842 5842 5841 5841 5841 5842 5843 5845 5847 5848 5850 5852 5854 5856 5859 5862 5865 5868 5870 5873 5875 5878 5881
5901 5899 5896 5888 5886 5883 5877 5873 5869 5867 5864 5860 5857 5854 5852 5850 5847 5845 5843 5841 5839 5838 5836 5834 5833 5832 5832 5831 5830 5830 5830 5830 5831 5832 5835 5837 5839 5842 5845 5848 5851 5854 5857 5860 5863 5865 5868 5871 5874
5897 5894 5891 5883 5881 5878 5872 5868 5863 5861 5857 5854 5851 5848 5845 5843 5840 5838 5835 5833 5830 5829 5827 5825 5823 5822 5820 5819 5818 5818 5818 5818 5819 5820 5822 5824 5827 5830 5834 5838 5842 5845 5849 5852 5855 5857 5860 5863 5866
5892 5889 5885 5881 5876 5873 5869 5863 5859 5856 5853 5849 5846 5843 5840 5837 5834 5832 5829 5826 5823 5820 5818 5816 5813 5811 5809 5807 5806 5805 5805 5805 5806 5807 5809 5811 5814 5818 5822 5827 5832 5836 5840 5844 5847 5850 5852 5856 5859
5888 5885 5881 5877 5873 5868 5865 5859 5854 5851 5848 5845 5841 5838 5835 5832 5829 5826 5822 5819 5816 5813 5810 5808 5805 5802 5799 5797 5795 5794 5793 5793 5793 5793 5795 5798 5801 5806 5810 5815 5820 5825 5830 5834 5838 5841 5844 5848 5851
5885 5881 5877 5873 5869 5865 5861 5857 5852 5849 5845 5842 5838 5835 5831 5828 5825 5821 5817 5814 5811 5808 5804 5801 5798 5795 5791 5788 5786 5784 5783 5782 5781 5781 5783 5785 5788 5793 5798 5804 5809 5814 5820 5825 5829 5833 5836 5839 5843
5882 5879 5875 5871 5866 5863 5860 5857 5851 5848 5844 5840 5836 5832 5829 5825 5821 5818 5814 5810 5807 5803 5800 5796 5792 5789 5785 5782 5779 5776 5774 5773 5772 5771 5772 5774 5777 5782 5787 5792 5798 5803 5809 5814 5819 5823 5827 5831 5834
5881 5877 5872 5867 5864 5862 5859 5856 5853 5847 5843 5839 5835 5831 5827 5824 5820 5816 5812 5808 5805 5801 5797 5793 5789 5785 5781 5777 5774 5771 5768 5766 5765 5764 5764 5765 5768 5772 5776 5782 5787 5793 5799 5804 5809 5813 5817 5821 5825
5879 5876 5872 5869 5866 5862 5859 5855 5853 5847 5843 5838 5834 5831 5827 5824 5820 5816 5812 5808 5804 5800 5796 5791 5787 5782 5778 5774 5771 5767 5764 5762 5760 5759 5759 5759 5761 5764 5768 5773 5778 5784 5789 5794 5799 5804 5808 5812 5816
5879 5875 5871 5868 5865 5862 5858 5855 5852 5847 5843 5839 5835 5832 5828 5825 5821 5817 5813 5809 5805 5801 5796 5791 5786 5782 5778 5774 5770 5766 5763 5760 5758 5756 5755 5755 5757 5759 5762 5766 5770 5775 5780 5785 5790 5795 5799 5803 5807
5879 5875 5872 5868 5864 5862 5859 5854 5851 5847 5844 5840 5837 5834 5830 5827 5823 5819 5815 5811 5807 5802 5797 5792 5787 5783 5779 5775 5771 5767 5764 5760 5758 5755 5754 5753 5754 5756 5758 5761 5764 5769 5773 5777 5781 5786 5790 5793 5797
5879 5876 5872 5868 5864 5861 5858 5858 5852 5849 5846 5843 5839 5836 5833 5829 5825 5821 5817 5813 5808 5804 5799 5795 5790 5785 5781 5776 5772 5769 5765 5762 5759 5757 5755 5754 5754 5754 5756 5758 5760 5763 5767 5770 5774 5778 5781 5785 5788
5880 5876 5872 5869 5865 5862 5859 5860 5854 5851 5848 5845 5842 5839 5835 5831 5827 5823 5819 5815 5810 5806 5802 5797 5793 5788 5783 5779 5775 5771 5767 5764 5761 5758 5756 5755 5754 5754 5755 5756 5758 5760 5762 5765 5768 5771 5774 5777 5780